Hagerstown, MD

11:16 AM EST on November 12, 2019 (GMT -0500)
Hagerstown Regional-Henson

Weather History for KHGR - September, 2019

Change the Weather History Date:

Friday, September 6, 2019

  Actual Average Record
Temperature  
Mean Temperature 70 °F 69 °F  
Max Temperature 80 °F 79 °F 95 °F (1998)
Min Temperature 60 °F 60 °F 45 °F (2000)
Degree Days  
Heating Degree Days 0 1  
Month to date heating degree days 0 1  
Since 1 July heating degree days 0 6  
Cooling Degree Days 5 5  
Month to date cooling degree days 55 33  
Year to date cooling degree days 1264 901  
Growing Degree Days 20 (Base 50)    
Moisture  
Dew Point 55 °F    
Average Humidity 62    
Maximum Humidity 84    
Minimum Humidity 39    
Precipitation  
Precipitation 0.00 in 0.10 in 1.40 in (2008)
Month to date precipitation 0.05 0.58  
Year to date precipitation 28.42 27.21  
Sea Level Pressure  
Sea Level Pressure 29.90 in    
Wind  
Wind Speed 7 mph (North)    
Max Wind Speed 15 mph    
Max Gust Speed 20 mph    
Visibility 10 miles    
Events      
T = Trace of Precipitation, MM = Missing Value Source: NWS Daily Summary

Daily Weather History Graph

Daily Weather History Graph

Search for Another Location

Airport or City:

Astronomy

Sep. 06, 2019 Rise Set
Actual Time 6:43 AM EDT 7:34 PM EDT
Civil Twilight 6:16 AM EDT 8:01 PM EDT
Nautical Twilight 5:43 AM EDT 8:34 PM EDT
Astronomical Twilight 5:09 AM EDT 9:07 PM EDT
Moon 2:48 PM EDT (9/6) No Moon Set
Length of Visible Light 13h 45m
Length of Day
12h 51m
First Quarter, 55% of the Moon is Illuminated
Sep 6
First Quarter
Sep 14
Full
Sep 21
Last Quarter
Sep 28
New
Oct 5
First Quarter

Hourly Weather History & Observations

Time (EDT) Temp. Dew Point Humidity Pressure Visibility Wind Dir Wind Speed Gust Speed Precip Events Conditions
12:53 AM 64.0 °F 55.9 °F 75% 30.01 in 10.0 mi North 5.8 mph - N/A   Clear
1:53 AM 63.0 °F 55.9 °F 78% 30.00 in 10.0 mi NNW 5.8 mph - N/A   Clear
2:53 AM 62.1 °F 55.9 °F 80% 29.99 in 10.0 mi NNW 5.8 mph - N/A   Clear
3:53 AM 62.1 °F 55.9 °F 80% 29.98 in 10.0 mi North 9.2 mph - N/A   Clear
4:53 AM 61.0 °F 55.0 °F 81% 29.96 in 10.0 mi North 5.8 mph - N/A   Clear
5:53 AM 61.0 °F 55.0 °F 81% 29.96 in 10.0 mi NNW 5.8 mph - N/A   Scattered Clouds
6:53 AM 60.1 °F 55.0 °F 83% 29.95 in 10.0 mi NNE 5.8 mph - N/A   Clear
7:53 AM 61.0 °F 55.0 °F 81% 29.96 in 10.0 mi NNW 9.2 mph - N/A   Clear
8:53 AM 63.0 °F 55.9 °F 78% 29.94 in 10.0 mi North 11.5 mph - N/A   Scattered Clouds
9:53 AM 64.9 °F 55.9 °F 73% 29.94 in 10.0 mi NNE 6.9 mph - N/A   Scattered Clouds
10:53 AM 68.0 °F 55.0 °F 63% 29.92 in 9.0 mi North 10.4 mph - N/A   Partly Cloudy
11:53 AM 73.0 °F 53.1 °F 49% 29.89 in 10.0 mi North 10.4 mph - N/A   Clear
12:53 PM 75.9 °F 53.1 °F 45% 29.87 in 10.0 mi North 8.1 mph 18.4 mph N/A   Clear
1:53 PM 77.0 °F 52.0 °F 42% 29.85 in 10.0 mi Variable 5.8 mph 17.3 mph N/A   Partly Cloudy
2:53 PM 78.1 °F 52.0 °F 40% 29.83 in 10.0 mi North 9.2 mph - N/A   Clear
3:53 PM 78.1 °F 53.1 °F 42% 29.81 in 10.0 mi North 8.1 mph - N/A   Clear
4:53 PM 79.0 °F 54.0 °F 42% 29.81 in 10.0 mi North 8.1 mph - N/A   Clear
5:53 PM 78.1 °F 55.0 °F 45% 29.81 in 10.0 mi NE 10.4 mph - N/A   Clear
6:53 PM 75.0 °F 54.0 °F 48% 29.82 in 10.0 mi ENE 9.2 mph - N/A   Clear
7:53 PM 73.0 °F 54.0 °F 51% 29.82 in 10.0 mi ENE 6.9 mph - N/A   Clear
8:53 PM 69.1 °F 55.9 °F 63% 29.84 in 10.0 mi ENE 6.9 mph - N/A   Partly Cloudy
9:53 PM 68.0 °F 55.0 °F 63% 29.85 in 10.0 mi NNE 4.6 mph - N/A   Scattered Clouds
10:53 PM 66.0 °F 55.9 °F 70% 29.86 in 10.0 mi West 3.5 mph - N/A   Partly Cloudy
11:53 PM 66.0 °F 55.9 °F 70% 29.85 in 10.0 mi Calm Calm - N/A   Overcast